SOYUZ-MS 23 (55688 NORAD) Tracking and Keplerian Element Data

This shows tracking and keplerian element data for the satellite.

Feedback or suggestion? Click here.




ElementValue
Catalog55688
NameSOYUZ-MS 23
Epoch Orbit38541
Epoch Day62.59626272
Epoch Year2023
RAAN131.5712
Inclination51.6412
Eccentricity0.0005952
Argument of Perigee51.3433
Mean Anonmoly101.2629
Mean Motion15.49611808
Decay Rate0.00020433
L11 55688U 23024A 23062.59626272 .00020433 00000+0 36991-3 0 9997
L22 55688 51.6412 131.5712 0005952 51.3433 101.2629 15.49611808385418



Live tracking and technical data element details for SOYUZ-MS 23 (NORAD 55688). SOYUZ-MS 23 can be tracked NOW for your location showing map with azimuth and elevation plus other details from your city location.







IsCatalogInMostPopularTable: catalog: 55688, numindb: 1
Update: records affected: 1



GetName: 55688 SOYUZ-MS 23

Hit Count: updated at: Wed, 22 Mar 2023 16:06:41 GMT